Wolf Creek Pass, CO

6:40 PM MDT on July 26, 2017 (GMT -0600)
Wolf Creek Pass

Weather History for KCPW - November, 2012

Change the Weather History Date:

Sunday, November 4, 2012

  Actual Average (KALS) Record (KALS)
Temperature  
Mean Temperature 35 °F -  
Max Temperature 42 °F 52 °F 67 °F (1977)
Min Temperature 28 °F 16 °F -13 °F (1991)
Degree Days  
Heating Degree Days 30    
Moisture  
Dew Point 7 °F    
Average Humidity 36    
Maximum Humidity 55    
Minimum Humidity 17    
Precipitation  
Precipitation 0.00 in - - ()
Sea Level Pressure  
Sea Level Pressure 30.49 in    
Wind  
Wind Speed 8 mph (West)    
Max Wind Speed 17 mph    
Max Gust Speed 25 mph    
Visibility 10 miles    
Events      
Averages and records for this station are not official NWS values.
T = Trace of Precipitation, MM = Missing Value Source: NWS Daily Summary

Daily Weather History Graph

Daily Weather History Graph

Search for Another Location

Airport or City:

Trip Planner

Search our weather history database for the weather conditions in past years. The results will help you decide how hot, cold, wet, or windy it might be!

Date:

Astronomy

Nov. 04, 2012 Rise Set
Actual Time 6:35 AM MST 5:05 PM MST
Civil Twilight 6:08 AM MST 5:32 PM MST
Nautical Twilight 5:37 AM MST 6:03 PM MST
Astronomical Twilight 5:06 AM MST 6:34 PM MST
Moon 9:47 PM MST (11/4) 11:19 AM MST (11/4)
Length of Visible Light 11h 24m
Length of Day
10h 29m
Waning Gibbous, 71% of the Moon is Illuminated
Nov 4
Waning Gibbous
Nov 6
Last Quarter
Nov 13
New
Nov 20
First Quarter
Nov 28
Full

Hourly Weather History & Observations

Time (MST) Temp. Windchill Dew Point Humidity Pressure Visibility Wind Dir Wind Speed Gust Speed Precip Events Conditions
12:19 AM 28.4 °F 21.2 °F 8.6 °F 43% 30.45 in 10.0 mi SW 6.9 mph - N/A   Clear
12:39 AM 28.4 °F 20.4 °F 8.6 °F 43% 30.45 in 10.0 mi SW 8.1 mph - N/A   Clear
12:59 AM 28.4 °F 19.7 °F 8.6 °F 43% 30.46 in 10.0 mi SW 9.2 mph - N/A   Clear
1:19 AM 28.4 °F 19.7 °F 8.6 °F 43% 30.45 in 10.0 mi SW 9.2 mph - N/A   Clear
1:39 AM 28.4 °F 20.4 °F 8.6 °F 43% 30.45 in 10.0 mi WSW 8.1 mph - N/A   Clear
1:59 AM 28.4 °F 19.7 °F 8.6 °F 43% 30.45 in 10.0 mi SSW 9.2 mph - N/A   Clear
1:19 AM 30.2 °F 20.2 °F 8.6 °F 40% 30.44 in 10.0 mi SW 12.7 mph - N/A   Clear
1:39 AM 30.2 °F 20.2 °F 8.6 °F 40% 30.44 in 10.0 mi SW 12.7 mph - N/A   Clear
1:59 AM 28.4 °F 18.5 °F 8.6 °F 43% 30.44 in 10.0 mi SW 11.5 mph - N/A   Clear
2:19 AM 28.4 °F 17.5 °F 8.6 °F 43% 30.44 in 10.0 mi SW 13.8 mph - N/A   Clear
2:39 AM 28.4 °F 17.5 °F 8.6 °F 43% 30.44 in 10.0 mi SSW 13.8 mph - N/A   Clear
2:59 AM 30.2 °F 19.8 °F 8.6 °F 40% 30.44 in 10.0 mi SW 13.8 mph - N/A   Clear
3:19 AM 30.2 °F 20.8 °F 8.6 °F 40% 30.44 in 10.0 mi SW 11.5 mph - N/A   Clear
3:39 AM 30.2 °F 20.8 °F 8.6 °F 40% 30.44 in 10.0 mi SW 11.5 mph - N/A   Clear
3:59 AM 30.2 °F 20.8 °F 8.6 °F 40% 30.44 in 10.0 mi SW 11.5 mph - N/A   Clear
4:19 AM 28.4 °F 18.5 °F 8.6 °F 43% 30.44 in 10.0 mi SW 11.5 mph - N/A   Clear
4:39 AM 28.4 °F 18.5 °F 8.6 °F 43% 30.44 in 10.0 mi SW 11.5 mph - N/A   Clear
4:59 AM 28.4 °F 18.0 °F 8.6 °F 43% 30.44 in 10.0 mi SW 12.7 mph - N/A   Clear
5:19 AM 28.4 °F 20.4 °F 8.6 °F 43% 30.45 in 10.0 mi SW 8.1 mph - N/A   Clear
5:39 AM 28.4 °F 21.2 °F 8.6 °F 43% 30.45 in 10.0 mi SW 6.9 mph - N/A   Clear
5:59 AM 28.4 °F 20.4 °F 8.6 °F 43% 30.45 in 10.0 mi SW 8.1 mph - N/A   Clear
6:19 AM 28.4 °F 22.2 °F 8.6 °F 43% 30.46 in 10.0 mi SSW 5.8 mph - N/A   Clear
6:39 AM 30.2 °F 25.4 °F 5.0 °F 34% 30.47 in 10.0 mi WSW 4.6 mph - N/A   Clear
6:59 AM 30.2 °F 25.4 °F 1.4 °F 29% 30.47 in 10.0 mi West 4.6 mph - N/A   Clear
7:19 AM 30.2 °F 24.3 °F 1.4 °F 29% 30.48 in 10.0 mi East 5.8 mph - N/A   Clear
7:39 AM 32.0 °F - -0.4 °F 25% 30.48 in 10.0 mi Calm Calm - N/A   Clear
7:59 AM 33.8 °F 30.8 °F 5.0 °F 30% 30.49 in 10.0 mi ENE 3.5 mph - N/A   Clear
8:19 AM 33.8 °F 27.0 °F -0.4 °F 23% 30.49 in 10.0 mi North 8.1 mph - N/A   Clear
8:39 AM 33.8 °F 28.6 °F -5.8 °F 18% 30.50 in 10.0 mi North 5.8 mph - N/A   Clear
8:59 AM 35.6 °F 29.9 °F 1.4 °F 24% 30.50 in 10.0 mi ENE 6.9 mph - N/A   Clear
9:19 AM 33.8 °F 27.7 °F -2.2 °F 22% 30.51 in 10.0 mi ENE 6.9 mph - N/A   Clear
9:39 AM 33.8 °F 30.8 °F -4.0 °F 20% 30.51 in 10.0 mi East 3.5 mph - N/A   Clear
9:59 AM 37.4 °F 32.1 °F -0.4 °F 20% 30.51 in 10.0 mi ENE 6.9 mph - N/A   Clear
10:19 AM 35.6 °F 32.8 °F -4.0 °F 18% 30.52 in 10.0 mi East 3.5 mph - N/A   Clear
10:39 AM 37.4 °F 32.8 °F -2.2 °F 19% 30.52 in 10.0 mi NE 5.8 mph - N/A   Scattered Clouds
10:59 AM 37.4 °F 33.8 °F -4.0 °F 17% 30.52 in 10.0 mi ENE 4.6 mph - N/A   Clear
11:19 AM 39.2 °F 35.0 °F 5.0 °F 24% 30.51 in 10.0 mi NNW 5.8 mph - N/A   Clear
11:39 AM 39.2 °F 35.0 °F 5.0 °F 24% 30.51 in 10.0 mi NNW 5.8 mph 16.1 mph N/A   Clear
11:59 AM 37.4 °F 30.8 °F 5.0 °F 26% 30.50 in 10.0 mi North 9.2 mph 21.9 mph N/A   Scattered Clouds
12:19 PM 37.4 °F 33.8 °F 5.0 °F 26% 30.50 in 10.0 mi North 4.6 mph 17.3 mph N/A   Clear
12:39 PM 37.4 °F 32.8 °F 6.8 °F 28% 30.49 in 10.0 mi North 5.8 mph - N/A   Clear
12:59 PM 37.4 °F 29.8 °F 8.6 °F 30% 30.49 in 10.0 mi North 11.5 mph 19.6 mph N/A   Clear
1:19 PM 41.0 °F 38.0 °F 8.6 °F 26% 30.49 in 10.0 mi NE 4.6 mph - N/A   Clear
1:39 PM 41.0 °F 36.4 °F 8.6 °F 26% 30.49 in 10.0 mi North 6.9 mph 17.3 mph N/A   Clear
1:59 PM 41.0 °F 37.1 °F 10.4 °F 29% 30.48 in 10.0 mi North 5.8 mph 19.6 mph N/A   Clear
2:19 PM 42.8 °F 40.1 °F 10.4 °F 27% 30.48 in 10.0 mi NNW 4.6 mph - N/A   Clear
2:39 PM 41.0 °F - 10.4 °F 29% 30.48 in 10.0 mi Calm Calm - N/A   Clear
2:59 PM 41.0 °F 39.0 °F 10.4 °F 29% 30.48 in 10.0 mi WSW 3.5 mph - N/A   Clear
3:19 PM 41.0 °F 35.8 °F 8.6 °F 26% 30.48 in 10.0 mi SW 8.1 mph - N/A   Clear
3:39 PM 39.2 °F 32.5 °F 8.6 °F 28% 30.48 in 10.0 mi WSW 10.4 mph - N/A   Clear
3:59 PM 37.4 °F 31.4 °F 8.6 °F 30% 30.49 in 10.0 mi WSW 8.1 mph - N/A   Clear
4:19 PM 37.4 °F 30.8 °F 8.6 °F 30% 30.49 in 10.0 mi WSW 9.2 mph - N/A   Clear
4:39 PM 35.6 °F 29.2 °F 8.6 °F 33% 30.50 in 10.0 mi WSW 8.1 mph - N/A   Clear
4:59 PM 33.8 °F 24.8 °F 8.6 °F 35% 30.50 in 10.0 mi SW 12.7 mph - N/A   Clear
5:19 PM 33.8 °F 27.7 °F 8.6 °F 35% 30.52 in 10.0 mi SW 6.9 mph - N/A   Clear
5:39 PM 32.0 °F 26.4 °F 8.6 °F 38% 30.52 in 10.0 mi South 5.8 mph - N/A   Clear
5:59 PM 32.0 °F - 6.8 °F 35% 30.52 in 10.0 mi Calm Calm - N/A   Clear
6:19 PM 32.0 °F - 8.6 °F 38% 30.53 in 10.0 mi Calm Calm - N/A   Clear
6:39 PM 32.0 °F 28.7 °F 10.4 °F 41% 30.54 in 10.0 mi NNE 3.5 mph - N/A   Clear
6:59 PM 32.0 °F 24.8 °F 10.4 °F 41% 30.54 in 10.0 mi East 8.1 mph - N/A   Clear
7:19 PM 32.0 °F 24.8 °F 10.4 °F 41% 30.54 in 10.0 mi ESE 8.1 mph - N/A   Clear
7:39 PM 32.0 °F 24.8 °F 10.4 °F 41% 30.54 in 10.0 mi East 8.1 mph - N/A   Clear
7:59 PM 32.0 °F 24.2 °F 12.2 °F 44% 30.54 in 10.0 mi NNE 9.2 mph - N/A   Clear
8:19 PM 32.0 °F 21.2 °F 14.0 °F 48% 30.54 in 10.0 mi NNE 16.1 mph 21.9 mph N/A   Clear
8:39 PM 32.0 °F 21.2 °F 14.0 °F 48% 30.54 in 10.0 mi NNE 16.1 mph 21.9 mph N/A   Clear
8:59 PM 32.0 °F 20.8 °F 14.0 °F 48% 30.54 in 10.0 mi North 17.3 mph 23.0 mph N/A   Clear
9:19 PM 32.0 °F 24.8 °F 14.0 °F 48% 30.54 in 10.0 mi ENE 8.1 mph - N/A   Clear
9:39 PM 32.0 °F 20.8 °F 15.8 °F 51% 30.54 in 10.0 mi North 17.3 mph 21.9 mph N/A   Clear
10:19 PM 30.2 °F 20.2 °F 15.8 °F 55% 30.54 in 10.0 mi NNE 12.7 mph 25.3 mph N/A   Clear
10:39 PM 30.2 °F 19.8 °F 15.8 °F 55% 30.54 in 10.0 mi NNE 13.8 mph - N/A   Clear
10:59 PM 28.4 °F 17.5 °F 14.0 °F 55% 30.54 in 10.0 mi NNE 13.8 mph - N/A   Clear